Wind_Speed
87 87 87 88 88 89 90 90 91 91 92 92 93 93 94 94 94 95 95 95 95 96 96 96 97 98 98 99 100 100 101 101 102 102 103 103 104 104 104 105 105 105 105 105 105 105 105 105 105 105 105 105 105 105 105 105 105 105 105 105 106 106 106 107 107 107 107 106 106 106 105 105 105 104 104 104 104 103 103 103 102 102 102 101 101 100
87 88 88 88 89 89 90 91 91 92 92 93 93 94 94 95 95 96 96 96 96 97 97 98 98 99 100 100 101 102 102 102 103 103 104 104 105 105 105 106 106 106 106 105 105 105 105 105 105 105 105 105 105 105 105 105 105 105 105 105 105 105 105 104 104 104 104 104 104 103 103 102 102 102 101 101 101 101 100 100 100 100 99 99 99 99
88 88 89 89 89 90 91 91 92 92 93 93 94 94 94 95 95 96 96 97 97 98 98 99 99 100 101 101 102 102 103 103 104 104 105 105 106 106 106 106 106 106 106 106 106 106 106 105 105 105 105 105 104 104 104 104 104 103 103 103 102 102 102 101 101 101 100 100 100 100 100 100 99 99 98 98 98 97 97 97 97 96 96 97 97 97
89 89 89 90 90 90 91 92 92 93 93 94 94 95 95 95 95 96 97 97 98 98 99 99 100 101 102 102 103 103 104 104 105 105 106 106 107 107 107 107 107 107 107 106 106 106 105 105 105 104 104 103 103 102 102 102 101 101 101 100 99 99 98 97 97 96 96 96 96 96 96 96 96 95 95 94 94 94 93 93 93 93 93 93 93 93
89 89 90 90 90 91 91 92 92 93 93 94 94 95 95 95 96 96 97 98 98 99 99 100 101 102 102 103 104 104 104 105 105 106 107 107 108 108 108 108 108 107 107 106 106 105 105 104 104 103 102 101 100 100 100 99 99 98 98 97 96 95 94 93 93 92 92 92 92 92 92 92 92 91 91 90 90 89 89 88 88 88 88 89 89 88
90 90 90 90 90 91 92 92 93 93 93 94 94 95 95 96 96 96 97 98 99 99 100 101 102 103 103 104 105 105 105 106 106 107 108 108 108 108 109 108 108 107 107 106 105 105 104 103 102 100 99 99 98 97 97 97 96 95 94 93 92 91 90 89 89 88 88 88 88 88 88 88 87 87 86 86 85 85 84 84 84 84 84 84 84 84
90 90 90 91 91 91 92 92 93 93 93 94 95 95 96 96 96 97 97 98 99 100 101 101 102 103 104 105 105 106 106 107 107 108 108 109 109 109 109 108 107 107 106 105 104 103 102 101 99 98 97 96 95 95 94 94 93 92 91 90 88 87 87 86 85 85 84 84 83 83 83 83 83 82 82 81 81 80 80 79 79 79 78 78 78 78
91 91 91 91 91 92 92 93 93 93 94 94 95 95 96 96 97 97 98 99 100 101 101 102 103 104 105 106 106 107 107 107 108 108 109 109 109 109 108 107 106 105 105 103 102 101 100 98 97 95 94 94 93 93 92 92 90 89 87 86 85 84 83 83 82 81 80 80 79 79 79 78 78 78 77 77 76 76 75 75 74 74 74 74 73 73
91 91 91 91 91 92 92 93 94 94 94 95 95 96 97 97 98 98 99 99 100 101 102 103 104 105 106 106 107 107 108 108 108 108 108 108 108 108 107 106 105 104 102 101 100 99 97 96 94 93 92 92 91 91 90 89 88 86 84 83 82 81 80 79 79 78 77 76 75 75 74 74 74 73 73 73 72 72 71 71 70 70 70 69 69 69
91 91 91 92 92 92 92 93 94 95 95 95 96 96 97 98 98 99 100 100 101 102 103 104 105 106 107 107 107 107 107 107 107 107 107 107 107 106 105 104 102 101 100 99 98 96 95 93 92 91 90 90 89 89 88 86 85 83 81 80 79 78 77 76 75 74 73 72 72 71 71 70 70 70 70 69 69 68 68 67 67 67 66 66 66 66
92 92 92 92 93 93 93 94 95 95 96 96 97 97 98 98 98 99 101 102 102 103 104 104 105 106 107 107 107 107 106 106 106 106 106 105 105 104 102 101 99 99 97 96 95 94 92 91 90 89 88 88 87 86 85 83 81 80 78 76 75 74 73 72 71 71 70 69 68 68 67 67 67 67 66 66 66 65 65 65 64 64 63 63 63 63
92 92 93 93 94 94 95 95 96 96 97 97 98 99 99 99 99 100 101 102 103 104 104 105 105 106 106 106 106 105 104 104 103 103 103 103 102 101 99 98 97 96 95 94 93 91 90 89 88 87 86 85 84 83 81 80 78 76 74 73 72 71 70 69 68 67 66 66 65 65 64 64 64 64 63 63 63 62 62 62 62 61 61 61 61 61
93 93 94 94 95 96 96 97 98 98 98 99 99 100 101 101 101 102 102 103 103 104 104 105 105 105 104 104 103 103 102 101 101 100 100 100 99 97 96 95 94 93 92 91 90 88 87 86 85 84 83 82 81 79 78 76 74 72 70 69 68 67 66 65 65 64 64 63 63 62 62 62 61 61 61 60 60 60 60 59 59 59 59 59 59 59
94 95 95 96 97 97 98 98 99 99 100 100 100 101 102 102 103 103 103 104 104 103 103 104 104 104 103 102 101 100 99 98 98 97 97 97 96 94 93 92 92 91 90 89 87 86 84 82 81 80 79 78 77 75 74 72 70 68 67 66 65 64 63 63 62 62 61 61 61 60 60 59 59 59 58 58 58 58 57 57 57 57 57 57 56 56
95 96 96 97 98 99 99 100 100 101 101 101 101 102 102 103 103 104 104 104 104 103 103 103 103 102 101 100 99 97 96 96 95 95 95 94 92 91 90 90 89 88 87 85 84 82 80 79 77 76 75 74 73 72 70 68 66 65 64 63 62 61 61 60 60 59 59 59 58 58 58 57 57 56 56 56 55 55 55 55 55 55 55 54 54 54
96 97 98 99 99 100 100 101 101 102 102 102 102 103 103 104 104 104 104 104 103 103 102 102 101 101 100 98 96 95 94 94 93 93 92 91 90 88 88 87 86 85 84 82 80 78 76 75 73 72 72 71 70 68 66 65 63 62 61 60 60 59 59 58 58 57 57 57 56 56 55 55 55 54 54 53 53 53 53 53 53 52 52 52 52 52
97 98 99 100 100 101 101 101 102 102 102 103 103 103 104 104 104 104 103 103 102 102 101 101 100 100 99 97 95 93 92 92 91 90 89 88 87 86 85 84 83 82 80 78 76 74 72 71 70 69 68 67 66 65 63 62 61 60 59 58 58 57 56 56 56 55 55 54 54 54 53 53 52 52 52 51 51 51 51 50 50 50 50 50 50 50
98 99 100 101 101 101 102 102 102 103 103 103 104 104 104 104 104 103 102 102 101 101 100 99 98 98 97 96 94 92 90 90 89 88 87 86 85 83 82 81 80 78 77 75 73 70 68 67 66 66 65 64 63 62 60 59 58 57 57 56 56 55 55 54 54 53 53 52 52 51 51 51 50 50 50 49 49 49 49 49 48 48 48 48 48 48
100 100 101 102 102 102 102 103 103 104 104 104 104 104 104 104 103 102 101 100 100 99 99 98 97 96 95 94 92 90 88 87 86 85 84 83 82 81 79 78 76 75 73 71 69 67 65 64 63 63 62 61 60 59 58 57 56 56 55 55 54 54 53 52 52 51 51 50 50 49 49 49 48 48 48 48 47 47 47 47 47 47 47 46 46 46
101 102 102 103 103 103 104 104 104 104 105 104 104 104 104 103 102 101 100 99 98 97 97 96 95 94 92 91 90 88 86 84 83 82 81 80 79 78 75 74 73 71 70 68 66 64 62 61 61 61 60 59 58 57 56 55 54 54 53 53 52 52 51 51 50 49 49 48 48 48 47 47 46 46 46 46 46 46 45 45 45 45 45 45 45 45
103 103 103 104 104 105 105 105 105 105 105 104 104 103 102 101 100 99 98 97 97 96 95 94 93 92 90 89 87 85 83 82 80 79 77 77 76 74 72 70 69 68 67 65 63 61 60 59 59 58 58 57 56 55 54 53 53 52 52 51 51 50 50 49 48 48 47 47 46 46 45 45 45 44 44 44 44 44 44 44 43 43 43 43 43 43
104 105 105 105 105 106 106 106 106 106 105 104 103 102 101 100 99 98 97 96 95 94 93 92 91 89 88 87 85 83 81 79 77 75 74 73 72 71 69 67 66 65 64 62 60 58 57 57 57 56 56 55 54 53 52 51 51 50 50 50 49 49 48 47 47 46 46 45 45 44 44 43 43 43 43 43 43 42 42 42 42 41 41 41 41 41
106 106 106 107 107 107 107 107 106 105 104 103 102 101 99 98 97 96 95 94 92 92 90 89 88 87 86 84 83 80 78 75 73 72 71 70 69 67 65 64 64 63 62 60 58 56 55 55 55 55 54 53 52 51 50 49 49 49 48 48 47 47 46 46 45 45 44 44 43 43 42 42 42 42 41 41 41 41 41 40 40 40 40 40 39 39
108 108 108 108 108 108 107 106 105 104 103 102 101 99 98 96 95 93 92 91 90 89 88 87 86 84 83 82 80 78 75 72 70 68 67 66 65 64 63 62 62 61 59 57 55 54 53 53 53 53 52 51 50 49 48 48 47 47 47 46 46 45 45 44 43 43 42 42 42 41 41 41 40 40 40 40 40 39 39 39 39 39 38 38 38 38
110 110 110 109 109 108 107 106 104 103 102 101 99 98 96 94 93 91 90 88 87 86 85 84 83 82 81 79 77 75 72 69 67 66 64 63 62 61 60 60 59 58 57 55 53 52 51 51 51 51 50 49 48 47 46 46 46 45 45 45 44 44 43 42 42 41 41 41 40 40 40 39 39 39 39 38 38 38 38 38 37 37 37 37 37 37
111 110 110 109 108 107 106 104 103 102 100 99 97 96 94 93 91 89 88 86 85 83 82 81 80 79 78 77 75 73 70 67 65 63 62 61 60 59 58 57 57 56 55 53 51 50 49 50 50 49 48 47 46 45 44 44 44 44 44 43 43 42 41 41 40 40 39 39 39 38 38 38 38 37 37 37 37 37 36 36 36 36 36 36 35 35
111 110 109 108 107 105 104 103 101 100 98 97 96 94 92 91 89 87 86 84 82 81 80 79 78 77 75 74 73 70 68 65 63 61 60 58 57 57 56 55 55 54 53 51 49 48 47 48 48 48 46 45 44 43 42 42 42 42 42 42 41 41 40 39 39 38 38 38 37 37 37 37 36 36 36 36 35 35 35 35 34 34 34 34 34 34
110 110 108 107 105 103 102 101 99 98 96 95 93 92 90 88 87 85 84 82 80 79 78 76 75 74 73 72 70 68 66 63 61 59 58 56 55 55 54 53 53 52 50 49 47 46 45 46 46 46 45 44 42 41 40 40 40 40 40 40 40 39 39 38 37 37 37 36 36 35 35 35 35 35 34 34 34 34 33 33 33 33 33 33 33 33
109 108 107 105 103 102 101 99 97 96 94 93 91 89 88 86 84 83 81 80 79 77 76 74 73 71 70 69 67 66 64 62 59 57 56 54 54 53 52 51 50 49 48 47 46 44 43 43 44 44 44 42 41 40 39 39 39 39 39 39 38 38 37 37 36 36 35 35 34 34 34 34 33 33 33 33 32 32 32 32 31 31 31 31 31 31
106 106 105 104 102 101 99 98 96 94 92 90 89 87 85 83 82 80 79 78 77 75 74 72 70 69 67 66 65 63 61 59 57 56 54 53 52 51 50 49 48 47 46 45 44 43 42 41 41 42 42 41 40 39 38 38 37 37 37 37 37 37 36 35 35 34 34 33 33 33 32 32 32 31 31 31 31 31 30 30 30 30 30 30 30 30
103 103 102 101 101 99 98 96 94 92 90 88 86 84 83 81 79 77 76 75 74 73 72 70 68 66 65 64 63 61 59 58 56 54 52 51 50 50 49 47 46 45 44 43 43 42 40 39 39 39 40 40 39 39 38 37 36 36 36 35 35 35 35 34 34 33 32 32 32 31 31 30 30 30 30 29 29 29 29 29 28 28 28 28 28 28
100 99 99 99 98 97 95 94 92 90 88 86 84 82 80 78 76 75 74 73 72 71 69 68 66 64 63 62 60 59 58 56 54 52 51 50 49 48 47 46 45 44 43 42 41 40 39 38 38 37 38 38 38 38 37 36 35 35 34 34 34 34 34 33 33 32 31 31 30 30 29 29 28 28 28 28 28 28 27 27 27 27 27 27 26 26
97 97 96 96 94 93 92 90 89 87 85 83 81 80 78 76 74 72 71 70 70 68 67 65 64 62 61 60 58 57 56 54 52 51 49 48 47 47 46 45 43 42 41 40 40 39 38 37 36 36 36 36 36 36 36 35 35 34 33 33 33 33 32 32 32 31 30 29 29 28 28 27 27 26 26 26 26 26 26 26 25 25 25 25 25 25
96 95 94 92 91 90 88 86 85 83 82 80 79 77 75 73 72 70 69 68 67 66 65 63 62 60 59 58 57 56 54 53 51 49 48 47 46 45 44 43 42 41 40 39 38 38 37 36 36 35 35 35 35 34 34 34 33 33 32 32 31 31 31 31 31 30 29 29 28 27 26 25 25 25 25 25 25 25 24 24 24 24 24 23 23 23
93 92 91 89 88 86 85 83 81 80 79 77 76 74 73 71 69 68 67 66 65 64 62 61 60 58 57 56 55 54 53 51 49 48 46 45 44 44 43 42 41 40 39 38 37 36 36 35 35 34 34 34 33 33 33 32 32 32 31 31 30 30 30 30 29 29 29 28 27 26 25 24 23 23 23 23 23 23 23 23 23 23 22 22 22 22
91 89 87 86 84 83 81 80 78 77 76 74 73 71 70 68 67 66 65 64 63 62 60 59 57 56 55 54 53 53 51 50 48 46 45 43 43 42 41 41 40 39 38 37 36 35 34 34 34 33 33 33 32 32 32 31 31 30 30 29 29 28 28 28 28 28 28 27 26 25 24 23 22 21 21 22 22 22 22 22 22 21 21 21 20 20
87 86 84 82 81 79 78 77 75 74 73 71 70 69 67 66 65 65 64 63 62 60 58 57 56 54 53 52 52 51 50 48 47 45 43 42 41 40 40 39 39 38 37 36 35 34 33 33 33 33 32 32 32 31 30 30 30 29 29 28 28 27 27 26 26 26 26 26 26 25 24 22 21 20 20 21 21 21 21 21 21 20 20 20 19 19
84 83 81 79 78 76 75 74 73 71 70 68 67 66 65 64 63 63 62 61 60 58 57 55 54 52 51 51 50 49 48 47 45 44 42 41 40 39 38 38 37 37 36 35 34 34 33 32 31 31 31 31 31 30 30 29 28 28 28 27 27 26 25 25 25 25 25 25 25 24 23 21 20 19 19 19 20 20 20 20 20 19 19 18 18 18
81 80 78 76 75 74 72 71 70 69 67 66 65 64 63 62 62 61 60 59 58 56 55 53 52 50 50 49 48 47 47 45 44 42 41 40 39 38 37 37 36 36 35 34 34 33 32 31 30 30 30 30 30 29 29 28 27 27 26 26 26 25 24 24 24 23 23 24 24 24 23 21 20 18 18 18 19 19 19 19 19 18 18 18 17 17
78 77 75 74 72 71 70 69 67 66 65 64 62 61 61 60 60 59 58 57 56 55 53 52 50 49 48 47 46 46 45 44 43 41 40 38 37 37 36 35 35 34 34 34 33 32 31 30 30 29 29 28 28 28 28 27 26 26 25 24 24 24 24 23 23 22 22 23 23 23 22 21 19 18 17 17 18 18 19 18 18 18 17 17 16 16
76 74 73 72 70 69 67 66 65 64 62 61 60 60 59 59 58 58 57 56 54 53 51 50 48 47 46 45 45 44 44 43 41 40 38 37 36 35 35 34 34 33 33 33 32 31 31 30 29 28 27 27 27 27 26 26 25 25 24 23 23 23 22 22 22 21 21 21 22 22 21 21 19 17 16 16 17 17 18 18 17 17 16 16 15 15
73 72 71 69 68 67 65 64 62 61 60 59 59 58 57 57 57 56 55 54 52 51 49 48 47 46 45 44 43 43 42 41 40 39 37 36 35 34 34 33 33 33 32 32 31 31 30 29 28 27 27 26 26 25 25 25 24 24 23 22 22 21 21 21 21 21 20 20 20 21 21 20 19 16 15 15 16 17 17 17 17 16 16 15 14 13
71 69 68 67 66 64 63 62 60 59 58 58 57 56 56 55 55 54 53 52 50 49 48 46 45 44 43 42 42 41 40 40 39 37 36 35 34 33 32 32 32 31 31 31 30 30 29 28 28 27 26 25 24 24 23 23 23 23 22 21 21 20 20 20 20 20 20 19 19 20 20 20 18 15 14 14 15 16 17 17 16 15 14 14 13 12
68 67 66 65 63 62 61 59 58 57 57 56 55 55 54 54 53 52 51 50 48 47 46 45 44 43 42 41 40 40 39 38 37 36 35 34 33 32 31 31 31 30 30 30 29 29 29 28 27 26 25 24 23 23 22 22 21 21 21 20 20 19 19 19 19 19 19 18 19 19 19 19 17 14 13 13 14 16 16 16 15 14 14 13 12 11
66 65 64 62 61 60 58 57 56 56 55 54 54 53 53 52 51 50 49 48 46 45 44 43 42 41 41 40 39 38 37 37 36 35 34 33 31 31 30 30 30 29 29 29 29 28 28 27 26 25 24 24 23 22 21 20 20 20 20 19 19 19 18 18 18 18 17 17 18 18 19 18 15 13 11 12 14 15 16 16 15 14 13 12 11 10
64 63 61 60 59 57 56 55 55 54 53 53 52 52 51 50 49 48 47 45 44 43 42 41 41 40 39 38 37 36 36 35 34 33 33 31 31 30 29 29 28 28 28 28 27 27 27 26 26 25 24 23 22 21 20 19 19 19 19 18 18 18 18 17 17 17 17 17 17 18 18 16 14 12 10 11 13 15 16 15 14 13 12 11 10 9
62 61 59 58 57 55 54 54 53 53 52 51 51 50 49 48 47 46 45 44 42 42 41 40 39 38 38 37 36 35 34 33 33 32 31 30 30 29 28 28 27 27 27 26 26 26 26 26 25 24 23 22 21 20 19 19 18 18 18 18 18 17 17 17 17 16 16 16 17 17 17 15 13 10 9 11 13 15 15 15 13 12 11 10 9 8
61 59 58 56 55 54 53 52 51 51 50 50 49 48 47 46 45 44 43 42 41 40 39 38 38 37 36 35 35 34 33 32 31 31 30 29 29 28 27 27 26 26 25 25 25 25 25 25 24 24 23 22 21 20 19 19 18 18 17 17 17 17 16 16 16 16 16 16 16 17 16 14 11 9 9 11 14 15 15 14 12 11 11 9 8 7
60 58 56 55 54 52 51 51 50 49 49 48 47 46 45 45 43 42 41 40 39 39 38 37 36 35 35 34 33 32 31 31 30 29 29 28 28 27 26 26 25 25 24 24 23 23 23 23 24 24 23 22 21 20 19 18 18 17 17 17 16 16 16 16 16 16 16 16 16 16 15 12 10 9 9 11 14 15 14 13 12 11 10 8 7 6
58 57 55 54 52 51 50 50 49 48 47 46 46 45 44 43 42 41 40 39 38 37 36 36 35 34 33 33 32 31 30 29 29 28 27 27 26 26 26 25 24 24 23 23 22 22 22 22 22 23 22 22 21 20 19 18 18 17 17 16 16 16 16 16 16 15 16 16 16 15 14 11 9 9 10 12 14 14 14 12 11 10 9 7 6 5
57 55 54 53 51 50 49 49 48 47 46 45 44 43 42 41 40 39 38 37 37 36 35 34 34 33 32 31 30 30 29 28 27 27 26 26 25 25 25 24 24 23 22 22 21 21 20 20 20 21 21 21 21 20 19 18 18 17 17 16 16 16 15 15 15 15 15 15 15 14 12 10 9 9 10 12 14 14 13 12 11 9 8 6 5 4
Wind_Direction
300 300 300 300 300 300 299 299 299 299 299 299 299 299 299 299 299 298 298 298 297 297 297 296 296 296 295 295 295 294 294 294 294 294 293 293 293 292 292 292 291 291 291 291 290 290 290 290 289 289 289 288 288 287 287 287 286 286 285 285 284 284 283 283 282 282 282 282 282 281 281 281 281 280 280 280 279 279 279 278 278 278 277 277 276 276
301 301 300 300 300 300 300 300 300 300 299 299 299 299 299 299 299 298 298 298 298 297 297 297 296 296 296 295 295 295 295 294 294 294 294 293 293 293 292 292 292 292 291 291 291 291 290 290 290 289 289 288 288 288 287 287 287 286 285 285 284 284 283 283 283 282 282 282 282 282 282 281 281 281 280 280 279 279 278 278 278 277 277 276 276 275
301 301 301 301 300 300 300 300 300 300 299 299 299 299 299 299 298 298 298 298 298 297 297 297 296 296 296 295 295 295 295 295 294 294 294 294 293 293 293 293 292 292 292 292 291 291 291 290 290 289 289 289 288 288 288 287 287 286 286 285 284 284 284 283 283 283 283 283 283 282 282 281 281 280 280 279 279 278 278 277 277 276 276 275 275 274
301 301 301 301 301 300 300 300 300 299 299 299 299 299 298 298 298 298 298 298 297 297 297 297 296 296 296 295 295 295 295 295 295 295 294 294 294 294 294 293 293 293 293 292 292 291 291 291 290 290 290 289 289 289 289 288 287 287 286 285 285 285 284 284 284 284 283 283 283 282 282 281 280 280 279 279 278 278 277 276 276 275 275 274 274 273
301 301 301 301 300 300 300 299 299 299 299 298 298 298 298 298 298 298 297 297 297 297 297 297 296 296 296 296 296 296 296 295 295 295 295 295 295 294 294 294 294 293 293 293 292 292 292 291 291 291 291 290 290 290 289 289 288 287 287 286 286 286 285 285 285 284 284 283 282 282 281 281 280 280 279 279 278 278 277 276 276 275 275 274 274 273
301 301 301 300 300 300 299 299 299 298 298 298 298 298 297 297 297 297 297 297 297 297 297 297 297 296 296 296 296 296 296 296 296 296 295 295 295 295 295 294 294 294 294 293 293 293 292 292 292 292 292 292 291 291 290 289 288 288 288 287 287 287 287 286 286 285 284 283 283 282 282 281 281 280 280 279 279 278 278 277 276 276 275 275 274 274
301 300 300 300 299 299 299 298 298 298 298 297 297 297 297 297 297 297 297 297 297 297 297 297 297 297 296 296 296 296 296 296 296 296 296 296 295 295 295 295 295 294 294 294 294 294 294 294 293 293 293 293 292 291 291 290 290 289 289 289 289 288 288 287 286 286 285 284 283 283 282 282 281 281 281 280 279 279 279 278 277 277 276 276 275 275
300 300 300 299 299 299 298 298 298 297 297 297 297 297 297 297 297 297 297 297 297 297 297 297 297 297 297 297 297 297 297 297 297 296 296 296 296 296 295 295 295 295 295 295 295 295 295 295 295 295 294 294 293 292 292 291 291 291 291 290 290 290 289 288 287 287 286 285 284 284 283 283 282 282 281 281 280 280 279 279 278 278 277 276 276 275
300 300 299 299 299 298 298 298 297 297 297 297 297 297 297 297 297 297 297 297 297 297 297 298 298 298 297 297 297 297 297 297 297 297 297 296 296 296 296 296 296 296 296 296 296 296 296 296 296 296 295 295 294 293 293 292 292 292 292 292 291 291 290 289 288 288 287 286 286 285 284 284 283 283 282 281 281 281 280 280 279 278 278 277 277 276
300 299 299 299 298 298 298 297 297 297 297 297 297 297 297 297 298 298 298 298 298 298 298 298 298 298 298 298 298 298 298 298 298 297 297 297 296 296 296 296 296 296 297 297 297 297 297 297 297 296 296 295 295 294 294 293 293 293 293 293 292 291 290 290 289 288 288 287 286 286 285 284 284 283 282 282 281 281 281 280 280 279 279 278 278 277
300 299 299 299 298 298 298 297 297 297 298 298 298 298 298 298 298 298 299 299 299 299 299 299 299 299 299 299 298 298 298 298 298 298 297 297 296 296 297 297 297 297 297 297 297 297 297 297 297 297 296 296 295 295 294 294 294 294 293 293 292 292 291 290 290 289 288 288 287 286 285 285 284 283 283 282 282 282 281 281 281 280 280 279 278 277
300 300 299 299 299 298 298 298 298 298 299 299 299 299 299 300 300 300 300 300 300 300 300 300 300 299 299 299 299 299 298 298 298 298 297 297 297 297 297 298 298 298 298 298 298 298 298 298 298 297 297 296 295 295 295 294 294 294 294 293 293 292 291 291 290 289 289 288 287 286 285 285 284 284 284 283 283 283 282 282 281 281 280 279 279 278
300 300 300 299 299 299 299 299 300 300 300 300 300 301 301 301 301 301 301 301 301 301 301 301 300 300 299 299 299 299 299 298 298 298 297 297 297 298 298 298 298 298 298 298 298 298 298 298 298 297 297 296 295 295 295 295 295 294 294 293 293 292 291 291 290 289 289 288 287 287 286 286 285 285 285 284 284 284 283 282 282 281 280 280 279 278
301 300 300 300 300 300 300 301 301 301 301 302 302 302 302 302 302 302 302 302 302 302 301 301 301 300 300 299 299 299 299 299 298 298 298 298 298 298 299 299 299 299 299 299 299 299 299 298 298 298 297 296 296 295 295 295 295 295 294 294 293 292 291 291 290 289 289 288 288 287 287 286 286 286 285 285 284 284 283 283 282 281 280 280 279 278
301 301 301 301 301 301 301 302 302 302 302 303 303 303 303 303 303 303 303 303 303 302 302 302 301 301 300 300 300 300 300 299 299 299 298 298 299 299 300 300 299 299 299 299 299 299 299 298 298 297 297 296 296 295 295 295 295 295 294 294 293 292 292 291 290 290 289 289 288 288 288 287 287 286 286 285 285 284 283 283 282 281 281 280 279 278
301 301 301 301 301 302 302 303 303 303 303 304 304 304 304 304 304 304 304 303 303 303 303 302 302 302 301 301 301 300 300 300 299 299 299 300 300 300 300 300 299 299 299 299 299 299 299 299 298 297 297 296 296 296 296 296 296 295 295 294 293 293 292 291 291 290 290 290 289 289 289 288 287 287 286 286 285 284 284 283 282 282 281 280 279 279
301 301 301 302 302 302 303 303 304 304 304 304 304 304 304 304 304 304 304 304 304 304 303 303 303 302 302 302 301 301 301 300 300 300 300 301 301 301 300 300 300 300 300 299 299 299 299 299 298 297 297 296 296 296 296 296 296 296 295 294 293 293 292 292 291 291 290 290 290 289 289 289 288 288 287 286 286 285 284 283 283 282 281 281 280 279
302 302 302 302 303 303 304 304 304 304 305 305 305 305 305 305 305 305 305 305 304 304 304 303 303 302 302 302 302 301 301 301 301 301 301 301 301 301 301 300 300 300 300 300 300 300 300 299 298 297 297 297 297 297 297 297 296 296 295 295 294 293 293 292 292 292 291 291 290 290 290 289 289 288 287 287 286 285 285 284 283 282 282 281 280 280
303 303 303 303 304 304 305 305 305 305 305 306 306 306 305 305 305 305 305 305 305 304 304 303 303 302 302 302 301 301 301 301 301 302 302 302 301 301 301 301 301 300 300 300 300 300 300 299 299 298 297 297 297 297 297 297 297 296 295 295 294 294 293 293 293 292 292 291 291 290 290 290 289 289 288 287 287 286 285 285 284 283 283 282 282 281
304 304 304 305 305 305 305 306 306 306 306 306 306 306 306 306 306 305 305 305 305 304 304 303 303 302 302 302 301 301 302 302 302 302 302 302 302 301 301 301 301 300 300 300 300 301 301 300 299 298 298 298 298 298 298 297 297 296 296 295 295 294 294 294 293 293 292 292 291 291 290 290 289 289 288 288 287 287 286 285 285 284 284 283 283 282
305 305 305 306 306 306 306 307 307 307 307 307 307 306 306 306 306 306 305 305 305 304 303 303 303 302 302 302 302 302 302 303 303 303 303 302 302 302 302 302 301 301 300 300 301 301 301 300 299 299 298 298 298 298 298 298 297 297 296 296 295 295 294 294 294 293 293 292 292 291 291 290 290 289 289 288 288 287 287 286 286 285 285 284 284 283
305 306 306 307 307 307 307 307 307 307 307 307 307 306 306 306 306 306 305 305 305 304 304 303 303 303 302 302 302 302 303 303 303 303 303 303 302 302 302 302 301 301 300 301 301 302 301 300 299 299 299 299 299 299 299 298 297 297 296 295 295 295 294 294 294 294 293 293 292 292 291 291 290 290 289 289 288 288 287 287 286 286 285 285 284 284
307 307 307 308 308 308 308 308 308 308 307 307 307 307 306 306 306 306 305 305 304 304 304 303 303 303 302 302 302 303 303 304 304 304 303 303 303 303 303 302 301 301 301 302 302 302 302 300 300 299 299 299 299 299 299 298 297 296 296 295 295 295 294 294 294 294 294 293 293 292 292 291 291 290 290 289 289 288 288 288 287 287 286 286 285 284
308 308 308 308 308 308 308 308 308 308 307 307 307 307 307 306 306 306 305 305 304 304 304 303 303 303 303 303 303 303 304 304 305 304 304 303 303 303 303 302 301 301 301 302 303 302 302 301 300 299 299 299 299 299 298 298 297 296 295 295 295 294 294 294 294 294 294 293 293 293 292 292 291 291 290 290 290 289 289 288 288 288 287 286 286 285
308 309 309 309 309 309 308 308 308 308 307 307 307 307 307 307 306 306 305 305 305 304 304 303 303 303 303 303 304 304 305 305 305 305 304 304 304 303 303 302 302 301 302 302 303 302 302 300 300 299 299 299 299 298 298 297 296 296 295 295 294 294 294 294 294 294 294 294 293 293 292 292 292 291 291 290 290 290 290 289 289 289 288 288 287 286
309 309 309 309 309 309 308 308 308 308 307 307 307 307 307 307 307 306 306 305 305 304 304 303 303 303 304 304 304 305 305 305 306 305 305 304 304 303 303 302 302 302 302 303 303 302 301 300 299 299 299 299 298 298 297 297 296 295 295 294 294 294 294 294 294 294 294 294 293 293 293 292 292 292 291 291 291 291 290 290 290 290 289 289 288 288
309 309 309 309 309 308 308 308 308 308 308 308 307 307 307 307 307 306 306 306 305 305 304 304 304 304 304 304 305 305 305 306 306 306 305 305 304 303 303 302 302 302 302 303 303 302 301 300 299 299 299 298 298 298 297 296 296 295 295 294 295 294 295 294 294 294 294 294 294 293 293 293 293 292 292 292 292 292 291 291 291 291 290 290 290 289
309 309 309 309 308 308 308 308 308 308 308 308 308 308 307 307 307 306 306 306 305 305 304 304 304 305 305 305 305 305 306 306 306 306 306 305 304 303 303 302 302 302 303 303 302 302 301 300 299 299 298 298 298 297 296 296 295 295 295 295 295 295 295 295 295 294 294 294 294 294 293 293 293 293 293 293 293 292 292 292 292 292 291 291 290 290
309 309 309 309 308 308 308 308 308 308 308 308 308 308 307 307 307 307 306 306 305 305 305 305 305 305 305 305 305 305 306 306 306 306 306 305 304 303 303 302 302 303 303 302 302 301 301 300 299 299 299 298 298 297 296 296 295 295 295 295 295 295 295 295 295 295 294 294 294 294 294 294 294 294 294 294 293 293 293 293 293 293 292 292 291 290
309 309 309 309 309 308 308 308 308 308 308 308 308 307 307 307 307 307 306 306 305 305 305 305 305 305 305 305 305 305 306 306 306 306 306 305 304 303 303 303 303 303 303 303 302 301 301 300 299 299 299 298 298 297 296 296 295 295 295 295 295 295 295 295 295 295 295 294 294 294 294 294 294 294 294 294 294 294 294 294 293 293 292 292 291 291
309 309 309 309 309 309 309 309 309 308 308 308 308 307 307 307 307 306 306 305 305 305 305 305 305 305 305 305 305 305 305 306 306 306 306 305 304 304 303 303 303 303 303 303 302 301 301 300 299 299 298 298 298 297 297 296 296 295 295 295 295 295 295 295 295 295 295 295 294 294 294 294 294 294 295 295 294 294 294 294 294 293 293 292 292 291
309 309 308 308 308 308 308 308 308 308 308 308 307 307 307 307 307 306 306 305 305 305 305 305 306 306 305 305 305 305 305 306 306 306 306 305 305 304 304 304 304 304 304 303 302 302 301 300 299 298 298 298 297 297 297 297 296 296 296 295 295 295 296 295 295 295 295 295 295 294 294 294 295 295 295 295 295 294 295 294 294 293 293 293 292 292
309 308 308 308 308 308 308 308 308 308 308 307 307 307 307 307 307 306 306 305 305 305 305 306 306 306 306 306 305 305 305 306 306 306 306 306 305 305 305 305 305 304 304 303 302 302 301 300 299 298 298 297 297 297 297 297 297 296 296 296 296 296 296 296 296 295 295 295 294 294 294 295 294 295 295 295 295 295 295 294 294 294 294 293 293 293
309 309 308 308 308 308 308 308 308 307 307 307 307 307 307 307 306 306 305 305 305 305 305 306 306 306 306 306 306 305 306 306 306 306 306 306 306 306 305 305 305 305 304 303 302 302 301 301 300 299 298 297 297 297 297 297 297 297 297 296 296 296 296 296 296 296 295 295 295 294 294 295 295 295 295 295 295 295 295 295 295 295 295 295 294 295
309 309 308 308 308 308 308 307 307 307 307 307 307 307 307 306 306 306 305 305 305 305 305 306 306 306 306 306 306 306 306 306 306 307 307 306 306 306 306 306 305 305 304 303 303 302 302 301 300 299 298 298 297 297 297 297 297 297 297 296 296 296 296 296 295 295 295 295 295 295 295 295 295 295 295 295 295 295 295 296 295 296 295 296 296 296
309 309 309 308 308 308 308 307 307 307 307 307 307 307 306 306 306 305 305 305 305 305 306 306 306 306 306 306 306 306 306 306 306 307 307 307 307 306 306 306 305 305 304 303 303 302 302 301 301 300 299 298 298 297 297 297 297 297 297 296 296 296 295 295 295 295 295 295 295 295 295 295 296 295 295 295 295 295 296 296 296 297 297 297 297 298
309 309 309 308 308 308 307 307 307 307 307 307 307 306 306 306 305 305 304 304 305 305 306 306 306 306 306 306 306 306 306 306 307 307 307 307 307 307 306 306 305 304 304 303 303 302 302 301 301 300 300 299 298 298 297 297 297 297 297 296 296 296 295 295 294 294 294 294 294 295 295 295 296 296 295 295 295 295 296 296 296 297 298 298 298 299
309 309 309 308 308 308 307 307 307 307 307 307 306 306 306 305 305 304 304 305 305 306 306 306 306 307 306 306 306 306 306 306 307 307 308 307 307 307 306 306 305 304 303 303 303 302 302 302 301 300 300 299 299 298 298 297 297 297 296 296 296 296 295 294 293 293 293 293 293 294 295 295 296 295 295 295 295 295 295 296 296 297 298 299 299 300
309 309 309 308 308 308 307 307 307 307 307 307 306 306 305 305 304 304 304 305 305 306 306 306 307 307 306 306 306 306 306 306 307 307 308 308 307 307 306 305 305 304 304 303 303 303 302 302 301 300 300 299 299 299 298 298 297 297 296 296 296 295 294 294 293 292 292 292 292 293 294 294 295 295 295 294 294 294 294 296 296 298 298 299 300 301
310 309 309 308 308 308 307 307 307 307 307 306 306 305 305 304 304 304 304 305 305 306 306 307 307 307 306 306 306 306 306 306 307 307 308 308 307 307 306 305 305 304 304 303 303 303 302 302 301 300 300 299 299 298 298 298 297 297 296 295 295 295 294 293 292 291 290 290 291 292 293 293 294 295 295 294 293 293 293 295 296 297 297 299 301 302
310 309 309 308 308 308 308 307 307 307 307 306 306 305 304 304 304 304 305 305 306 306 306 307 307 307 306 306 306 306 306 306 307 307 308 308 307 307 306 305 304 304 304 304 303 303 303 302 301 301 300 299 299 298 298 297 297 296 296 295 294 294 293 293 292 291 290 290 290 291 291 292 293 295 295 294 292 292 292 293 294 296 297 299 301 302
310 309 309 308 308 308 308 308 307 307 306 306 305 305 304 304 304 304 305 305 306 306 307 307 307 306 306 306 306 306 306 306 307 307 308 308 307 306 306 305 305 304 304 303 303 303 303 302 302 301 300 300 299 298 298 297 296 296 295 295 294 293 293 292 292 291 290 289 289 289 290 290 292 295 296 294 291 290 290 291 292 294 296 298 301 303
310 309 309 308 308 308 308 308 307 307 306 306 305 305 304 304 304 305 305 306 306 307 307 307 307 306 306 306 306 306 306 306 307 307 308 308 307 306 306 305 305 304 304 303 303 303 303 303 302 302 301 300 299 298 297 296 296 296 295 295 294 293 291 291 290 290 289 289 288 288 288 289 292 295 296 293 289 287 287 288 291 293 295 298 301 304
310 309 309 309 309 308 308 308 308 307 306 305 305 304 304 304 305 305 306 306 306 307 307 307 307 306 306 306 306 306 306 306 307 307 307 307 307 306 305 305 304 304 304 303 303 303 303 303 303 302 301 301 299 298 297 296 296 295 295 295 294 292 291 290 289 289 289 288 287 286 287 289 292 296 296 291 286 284 285 286 289 291 295 297 300 305
310 309 309 309 309 309 309 308 308 307 306 305 305 305 305 305 305 306 306 307 307 307 307 307 306 306 306 306 306 306 306 307 307 307 307 307 306 306 305 305 305 304 304 304 303 303 303 303 303 302 302 301 300 299 298 297 296 296 295 294 294 292 291 290 289 288 287 287 285 285 285 288 293 297 296 289 283 280 281 284 287 290 294 297 301 306
310 310 309 309 309 309 309 308 308 307 306 306 305 305 305 306 306 306 306 307 307 307 307 307 306 306 306 306 306 306 306 307 307 307 307 306 306 306 305 305 304 304 304 304 303 303 303 303 303 302 302 301 301 300 300 298 297 296 295 294 293 292 291 290 288 287 286 285 284 283 285 288 293 296 294 285 278 277 279 282 285 289 292 296 300 307
310 310 310 310 310 310 309 309 308 307 306 306 306 306 306 306 307 307 307 307 307 307 307 307 306 306 306 306 306 307 307 307 307 307 307 306 306 306 305 305 305 304 304 304 304 304 304 303 303 303 302 302 302 302 301 300 298 297 296 294 293 292 291 290 288 287 285 284 283 282 284 288 293 295 289 279 274 274 277 280 284 287 290 294 300 307
311 311 311 311 311 310 310 309 308 308 307 307 307 307 307 307 307 307 308 308 307 307 307 307 307 307 306 306 306 307 307 307 307 307 306 306 306 306 306 305 305 304 304 304 304 304 304 303 304 303 303 303 303 303 302 301 299 298 296 294 294 292 291 289 288 286 284 282 281 282 284 287 292 291 282 273 270 272 275 278 282 285 288 293 300 307
312 311 312 312 312 311 311 310 309 309 308 308 308 308 308 308 308 308 308 308 308 307 307 307 307 307 307 307 307 307 307 307 307 307 306 306 306 306 306 305 305 305 305 304 304 304 303 303 303 303 304 304 304 304 303 301 300 298 296 294 293 291 289 288 286 285 283 281 280 281 283 287 289 285 274 268 267 269 274 277 280 283 286 292 299 306
312 312 312 313 312 312 311 311 310 310 310 309 309 309 309 309 309 309 308 308 308 308 307 307 307 307 307 307 307 307 307 307 307 307 307 306 306 306 306 306 305 305 305 305 304 304 303 303 303 303 303 304 304 303 303 301 300 298 296 295 292 290 288 287 285 283 282 280 279 280 282 285 284 277 268 264 265 268 272 275 278 280 284 290 297 300
313 313 313 313 313 313 312 311 311 311 310 310 310 310 309 309 309 309 309 308 308 308 308 308 307 307 307 307 307 307 307 307 307 307 307 307 306 307 306 306 306 306 306 305 305 304 303 303 302 302 302 303 303 303 302 301 299 298 296 294 292 290 288 285 284 282 280 279 279 280 282 283 279 270 263 260 263 267 271 273 275 277 281 288 292 291
Height
10406 10403 10399 10396 10391 10387 10382 10379 10376 10373 10368 10365 10362 10359 10356 10353 10350 10346 10344 10341 10339 10336 10333 10329 10326 10322 10318 10314 10310 10307 10304 10301 10298 10295 10291 10288 10285 10281 10279 10276 10273 10271 10268 10266 10264 10262 10260 10258 10255 10253 10251 10248 10246 10244 10242 10239 10238 10236 10233 10231 10228 10224 10222 10219 10216 10213 10211 10209 10207 10206 10204 10203 10201 10199 10199 10198 10196 10195 10194 10193 10192 10191 10190 10189 10189 10189
10400 10396 10393 10390 10386 10381 10376 10372 10369 10366 10362 10358 10355 10351 10349 10345 10342 10338 10336 10333 10330 10327 10324 10320 10316 10313 10309 10305 10301 10298 10295 10291 10288 10285 10281 10278 10275 10271 10268 10266 10263 10260 10258 10256 10254 10251 10250 10247 10245 10242 10240 10238 10235 10233 10231 10229 10226 10224 10221 10219 10216 10213 10210 10208 10205 10203 10201 10199 10197 10195 10193 10192 10191 10189 10188 10187 10186 10184 10183 10182 10181 10181 10179 10178 10178 10176
10393 10389 10386 10383 10380 10375 10370 10366 10362 10359 10356 10352 10348 10345 10342 10339 10335 10331 10328 10325 10321 10318 10315 10312 10308 10304 10300 10296 10293 10290 10286 10283 10279 10275 10272 10268 10265 10261 10258 10255 10252 10250 10248 10245 10243 10241 10239 10236 10234 10231 10229 10227 10224 10223 10220 10218 10215 10212 10209 10206 10204 10201 10199 10198 10196 10194 10192 10189 10188 10185 10183 10181 10179 10178 10177 10176 10174 10173 10172 10171 10171 10170 10169 10168 10166 10166
10386 10383 10379 10376 10372 10368 10365 10360 10356 10352 10349 10346 10342 10338 10335 10332 10329 10325 10321 10318 10314 10310 10306 10303 10300 10295 10291 10287 10283 10281 10277 10274 10270 10266 10262 10258 10255 10251 10248 10245 10241 10239 10236 10234 10232 10230 10228 10225 10223 10221 10218 10216 10214 10212 10209 10206 10203 10200 10197 10194 10193 10191 10189 10188 10186 10184 10183 10180 10178 10175 10172 10170 10168 10167 10166 10164 10163 10163 10162 10161 10161 10159 10159 10158 10156 10155
10380 10376 10373 10370 10366 10362 10358 10354 10350 10346 10343 10340 10336 10332 10329 10325 10322 10318 10315 10311 10307 10303 10299 10295 10291 10286 10282 10278 10275 10271 10268 10265 10261 10256 10253 10248 10245 10241 10237 10234 10231 10228 10226 10224 10221 10219 10216 10214 10212 10210 10208 10206 10204 10201 10198 10194 10191 10188 10185 10183 10181 10181 10179 10178 10177 10175 10173 10170 10167 10164 10161 10159 10157 10156 10155 10154 10153 10152 10151 10151 10150 10149 10148 10147 10146 10146
10374 10370 10367 10363 10360 10356 10351 10348 10343 10340 10336 10333 10329 10326 10322 10319 10315 10312 10308 10304 10300 10296 10291 10287 10283 10278 10274 10270 10266 10263 10260 10256 10251 10247 10243 10239 10234 10231 10227 10223 10221 10218 10215 10213 10210 10208 10205 10203 10201 10199 10198 10196 10193 10189 10186 10183 10179 10176 10174 10173 10172 10171 10169 10168 10166 10164 10161 10159 10156 10154 10151 10149 10147 10146 10144 10144 10143 10142 10141 10141 10140 10139 10139 10138 10137 10136
10366 10364 10361 10357 10353 10349 10346 10341 10337 10333 10330 10326 10323 10318 10315 10312 10309 10306 10301 10297 10293 10288 10284 10280 10275 10270 10266 10261 10258 10254 10251 10247 10243 10238 10233 10229 10224 10221 10217 10213 10210 10207 10204 10202 10199 10197 10194 10193 10191 10189 10188 10185 10182 10178 10174 10171 10168 10166 10164 10163 10163 10161 10159 10157 10155 10153 10151 10148 10146 10144 10142 10139 10138 10136 10135 10134 10133 10133 10132 10131 10131 10130 10129 10129 10128 10128
10360 10356 10353 10350 10346 10342 10338 10334 10331 10327 10323 10320 10316 10311 10308 10305 10302 10299 10295 10290 10286 10281 10277 10272 10267 10262 10258 10253 10250 10245 10241 10237 10233 10229 10224 10219 10214 10211 10207 10204 10200 10197 10194 10191 10189 10186 10184 10183 10181 10179 10177 10174 10170 10167 10163 10160 10158 10156 10155 10154 10153 10151 10149 10146 10144 10142 10140 10138 10136 10134 10133 10131 10129 10128 10126 10125 10124 10124 10123 10123 10122 10121 10121 10121 10120 10119
10354 10350 10346 10343 10340 10336 10331 10326 10322 10320 10317 10313 10309 10305 10301 10298 10294 10291 10288 10283 10279 10274 10270 10265 10259 10253 10248 10245 10241 10237 10233 10228 10223 10219 10214 10209 10204 10200 10197 10194 10191 10188 10185 10182 10179 10177 10175 10173 10171 10169 10166 10163 10159 10156 10153 10150 10148 10147 10146 10145 10143 10141 10139 10136 10134 10133 10131 10129 10128 10126 10124 10123 10121 10119 10118 10117 10116 10115 10114 10114 10114 10113 10113 10113 10112 10112
10346 10343 10339 10335 10331 10328 10325 10320 10315 10311 10309 10306 10301 10298 10295 10292 10288 10283 10278 10274 10270 10266 10262 10257 10251 10245 10239 10234 10231 10228 10224 10219 10214 10209 10205 10200 10196 10191 10188 10185 10182 10179 10176 10173 10171 10168 10166 10164 10163 10159 10156 10153 10149 10146 10143 10141 10139 10138 10138 10136 10134 10132 10129 10128 10126 10124 10123 10121 10119 10118 10116 10115 10113 10112 10111 10109 10108 10108 10107 10106 10106 10106 10105 10105 10104 10104
10338 10335 10331 10327 10323 10320 10316 10313 10308 10305 10301 10298 10293 10290 10287 10285 10281 10277 10271 10265 10260 10256 10253 10248 10243 10238 10232 10226 10221 10217 10214 10211 10206 10200 10195 10191 10186 10183 10179 10177 10174 10171 10168 10164 10162 10160 10158 10156 10154 10151 10148 10144 10141 10137 10134 10133 10131 10131 10129 10128 10126 10123 10121 10119 10118 10116 10114 10113 10111 10110 10109 10108 10106 10104 10103 10102 10101 10101 10100 10099 10099 10099 10098 10098 10097 10097
10330 10326 10323 10319 10315 10311 10306 10303 10300 10296 10293 10290 10285 10280 10276 10273 10271 10268 10263 10257 10252 10248 10243 10238 10233 10228 10223 10218 10213 10208 10205 10202 10198 10192 10186 10181 10178 10174 10172 10169 10166 10163 10159 10156 10154 10152 10150 10148 10145 10142 10139 10136 10132 10129 10127 10125 10124 10123 10122 10120 10118 10116 10114 10112 10110 10109 10108 10106 10104 10103 10101 10100 10099 10098 10097 10096 10095 10094 10094 10093 10093 10092 10091 10091 10090 10089
10321 10318 10314 10310 10306 10302 10298 10294 10290 10286 10283 10280 10276 10272 10267 10263 10260 10257 10253 10248 10244 10239 10235 10229 10223 10217 10213 10209 10205 10201 10198 10194 10189 10184 10179 10173 10169 10167 10165 10162 10158 10154 10151 10148 10146 10144 10143 10140 10138 10134 10131 10128 10124 10121 10119 10118 10118 10116 10115 10113 10111 10109 10107 10105 10103 10102 10100 10099 10098 10096 10094 10094 10093 10091 10091 10090 10089 10088 10088 10087 10086 10085 10084 10084 10083 10083
10312 10308 10305 10301 10296 10293 10289 10285 10281 10278 10274 10271 10268 10264 10259 10255 10251 10247 10243 10238 10234 10230 10226 10221 10214 10208 10204 10199 10196 10193 10189 10185 10181 10176 10171 10166 10162 10160 10158 10154 10151 10147 10144 10141 10139 10137 10136 10133 10130 10126 10123 10120 10117 10114 10113 10112 10111 10109 10108 10106 10104 10103 10101 10099 10097 10096 10094 10092 10091 10089 10089 10088 10087 10086 10085 10084 10083 10083 10081 10081 10079 10079 10078 10078 10077 10076
10304 10300 10296 10291 10288 10284 10281 10277 10273 10269 10265 10262 10259 10256 10251 10246 10241 10238 10234 10229 10224 10220 10216 10211 10205 10199 10194 10191 10188 10184 10181 10176 10172 10168 10163 10159 10155 10153 10151 10148 10143 10139 10137 10134 10132 10130 10129 10126 10123 10119 10116 10113 10110 10108 10107 10106 10104 10103 10102 10100 10098 10096 10094 10093 10091 10089 10088 10086 10085 10084 10083 10082 10081 10080 10079 10078 10078 10076 10076 10074 10074 10073 10072 10071 10070 10069
10296 10293 10288 10284 10280 10276 10273 10270 10266 10262 10258 10254 10251 10247 10243 10238 10233 10228 10224 10221 10216 10211 10206 10201 10196 10189 10184 10180 10178 10176 10174 10169 10164 10159 10156 10151 10148 10146 10144 10140 10136 10132 10130 10128 10126 10124 10122 10119 10116 10113 10109 10106 10104 10103 10101 10100 10099 10097 10096 10094 10092 10090 10089 10087 10086 10084 10083 10081 10079 10078 10078 10076 10076 10074 10074 10073 10072 10071 10069 10069 10068 10067 10066 10065 10064 10064
10290 10286 10281 10277 10273 10270 10266 10263 10258 10255 10251 10247 10243 10239 10234 10229 10224 10220 10215 10211 10207 10202 10197 10192 10187 10182 10176 10171 10168 10166 10165 10161 10156 10152 10149 10145 10141 10138 10136 10133 10129 10126 10123 10121 10119 10118 10116 10113 10110 10106 10103 10101 10099 10097 10096 10094 10093 10091 10089 10088 10086 10084 10083 10081 10080 10079 10077 10076 10074 10073 10072 10071 10070 10069 10068 10067 10066 10065 10064 10063 10063 10062 10061 10059 10059 10059
10283 10279 10275 10270 10266 10263 10260 10255 10251 10246 10242 10238 10234 10230 10226 10221 10216 10212 10208 10203 10198 10193 10188 10183 10178 10174 10169 10164 10159 10156 10156 10153 10149 10145 10143 10138 10134 10131 10129 10126 10123 10119 10116 10114 10113 10111 10109 10107 10104 10100 10097 10095 10093 10092 10091 10089 10088 10086 10084 10082 10081 10079 10078 10076 10075 10074 10073 10071 10069 10068 10067 10066 10065 10064 10063 10062 10061 10060 10059 10058 10058 10057 10056 10055 10055 10054
10275 10271 10267 10263 10258 10254 10251 10247 10243 10238 10234 10229 10225 10221 10216 10211 10207 10203 10199 10194 10189 10184 10179 10174 10169 10164 10161 10157 10153 10149 10148 10146 10143 10139 10136 10132 10128 10124 10122 10119 10116 10113 10109 10108 10106 10106 10104 10101 10098 10094 10092 10090 10088 10087 10086 10084 10082 10081 10079 10077 10075 10074 10073 10071 10070 10069 10068 10066 10065 10064 10063 10061 10060 10059 10058 10057 10056 10055 10054 10053 10052 10051 10051 10050 10049 10049
10266 10262 10258 10255 10251 10246 10241 10237 10234 10230 10225 10221 10216 10212 10208 10203 10198 10194 10189 10186 10181 10176 10171 10166 10161 10156 10153 10149 10146 10143 10141 10139 10136 10134 10131 10126 10121 10117 10115 10113 10110 10106 10103 10102 10101 10100 10098 10095 10092 10089 10086 10085 10083 10082 10081 10079 10077 10075 10073 10072 10070 10069 10068 10066 10065 10064 10063 10061 10060 10059 10058 10057 10056 10054 10053 10052 10051 10051 10050 10049 10048 10048 10047 10046 10045 10044
10258 10253 10249 10246 10243 10238 10233 10228 10224 10219 10216 10211 10207 10203 10198 10194 10190 10186 10181 10177 10173 10167 10163 10158 10153 10149 10145 10141 10138 10135 10134 10133 10130 10127 10124 10119 10115 10111 10109 10107 10104 10101 10098 10096 10096 10094 10093 10089 10086 10083 10081 10080 10079 10078 10076 10074 10073 10071 10069 10067 10065 10064 10063 10061 10060 10059 10058 10057 10056 10054 10053 10053 10051 10050 10049 10048 10047 10046 10046 10045 10044 10044 10043 10043 10041 10041
10249 10245 10240 10236 10233 10229 10224 10219 10214 10210 10206 10202 10198 10193 10189 10185 10181 10176 10172 10168 10164 10159 10154 10149 10145 10141 10138 10134 10131 10128 10128 10126 10124 10121 10118 10113 10109 10106 10104 10101 10098 10095 10093 10091 10091 10089 10087 10084 10081 10078 10077 10076 10074 10073 10071 10069 10068 10066 10064 10063 10061 10059 10058 10057 10056 10055 10054 10053 10051 10050 10049 10048 10047 10046 10045 10044 10043 10042 10041 10040 10039 10039 10038 10038 10037 10036
10239 10235 10231 10227 10223 10219 10214 10209 10205 10201 10196 10193 10189 10185 10181 10178 10174 10169 10164 10160 10156 10151 10146 10142 10138 10134 10130 10127 10124 10122 10121 10120 10118 10115 10112 10108 10104 10101 10099 10096 10093 10089 10088 10086 10086 10084 10082 10079 10076 10074 10073 10071 10070 10069 10067 10065 10063 10061 10059 10058 10057 10056 10054 10053 10052 10051 10050 10049 10048 10046 10045 10044 10043 10042 10041 10040 10039 10038 10037 10036 10036 10035 10034 10034 10033 10032
10228 10224 10220 10216 10213 10208 10204 10200 10196 10191 10187 10183 10179 10176 10173 10169 10166 10162 10158 10153 10149 10144 10139 10136 10131 10127 10123 10121 10118 10116 10114 10114 10112 10109 10106 10103 10099 10096 10093 10091 10088 10084 10083 10082 10081 10079 10077 10074 10071 10069 10068 10067 10066 10064 10063 10061 10059 10058 10056 10054 10053 10051 10051 10049 10048 10047 10046 10045 10044 10043 10041 10040 10039 10038 10037 10036 10035 10034 10034 10033 10032 10031 10031 10030 10029 10028
10218 10214 10210 10206 10202 10198 10194 10190 10186 10182 10178 10174 10170 10167 10163 10160 10157 10153 10149 10146 10142 10138 10133 10129 10124 10121 10117 10114 10111 10109 10108 10108 10106 10103 10100 10097 10094 10091 10088 10086 10083 10080 10078 10078 10077 10075 10073 10069 10067 10065 10064 10063 10062 10061 10059 10057 10055 10053 10052 10050 10049 10048 10047 10046 10045 10044 10043 10041 10040 10039 10038 10037 10036 10034 10034 10033 10032 10031 10030 10029 10028 10028 10027 10026 10025 10024
10209 10206 10202 10198 10194 10189 10185 10181 10178 10174 10170 10166 10162 10159 10155 10151 10148 10144 10141 10138 10134 10131 10126 10122 10118 10114 10111 10108 10105 10103 10101 10101 10099 10098 10094 10092 10089 10086 10083 10081 10078 10076 10074 10073 10073 10071 10068 10065 10063 10061 10060 10059 10058 10057 10055 10053 10051 10049 10048 10046 10046 10044 10044 10043 10041 10040 10039 10038 10037 10036 10034 10033 10033 10031 10030 10029 10029 10028 10027 10026 10025 10024 10023 10023 10022 10021
10200 10196 10193 10189 10185 10181 10177 10173 10170 10166 10162 10158 10155 10151 10148 10144 10140 10136 10133 10130 10127 10123 10119 10116 10112 10109 10106 10102 10099 10097 10096 10095 10094 10092 10089 10087 10084 10081 10079 10076 10074 10072 10070 10069 10068 10067 10064 10061 10059 10057 10056 10055 10054 10053 10051 10049 10048 10046 10044 10043 10042 10041 10040 10039 10038 10037 10036 10035 10034 10033 10031 10030 10029 10028 10027 10026 10026 10024 10024 10023 10022 10021 10020 10019 10019 10018
10192 10187 10183 10180 10176 10173 10169 10165 10162 10158 10155 10151 10147 10143 10141 10137 10133 10128 10124 10122 10118 10115 10112 10109 10106 10103 10099 10097 10094 10091 10090 10089 10088 10086 10084 10082 10079 10077 10074 10072 10070 10068 10066 10064 10064 10063 10061 10058 10055 10053 10051 10051 10050 10049 10048 10046 10044 10043 10041 10039 10039 10038 10037 10036 10035 10034 10033 10032 10031 10029 10028 10027 10026 10025 10024 10023 10023 10022 10021 10020 10019 10018 10018 10016 10016 10015
10184 10179 10174 10171 10168 10164 10161 10157 10154 10151 10148 10144 10140 10136 10132 10129 10125 10121 10117 10114 10111 10108 10106 10104 10101 10098 10094 10092 10089 10087 10085 10084 10083 10081 10079 10077 10074 10072 10070 10068 10066 10064 10063 10061 10059 10058 10058 10055 10052 10049 10048 10047 10046 10045 10044 10043 10041 10039 10038 10036 10036 10034 10034 10033 10032 10031 10030 10029 10028 10026 10026 10024 10023 10023 10021 10021 10019 10019 10018 10017 10016 10016 10014 10014 10013 10012
10179 10173 10167 10162 10158 10155 10151 10148 10145 10143 10139 10136 10133 10129 10125 10122 10119 10115 10111 10108 10104 10102 10099 10097 10095 10093 10089 10087 10084 10082 10081 10079 10078 10076 10074 10072 10069 10068 10066 10064 10062 10061 10059 10057 10055 10054 10053 10052 10049 10046 10044 10043 10042 10041 10040 10039 10038 10036 10035 10033 10033 10031 10031 10029 10029 10028 10027 10026 10025 10024 10023 10022 10021 10019 10019 10018 10017 10016 10016 10015 10014 10013 10012 10011 10011 10010
10174 10168 10161 10156 10151 10148 10144 10140 10137 10134 10131 10128 10125 10122 10119 10116 10113 10110 10106 10103 10099 10096 10093 10091 10089 10087 10084 10082 10079 10078 10076 10074 10073 10072 10070 10068 10065 10063 10061 10059 10058 10057 10055 10053 10051 10050 10049 10048 10046 10044 10041 10039 10038 10037 10036 10036 10034 10033 10032 10031 10029 10028 10028 10026 10026 10025 10024 10023 10022 10021 10020 10019 10018 10018 10016 10016 10014 10014 10013 10013 10012 10011 10010 10009 10008 10008
10169 10163 10157 10151 10146 10142 10138 10134 10131 10126 10123 10121 10118 10114 10112 10109 10106 10104 10101 10097 10093 10091 10088 10086 10084 10082 10080 10078 10075 10073 10071 10069 10069 10067 10065 10063 10061 10059 10057 10056 10054 10053 10051 10049 10048 10046 10045 10044 10043 10041 10039 10037 10035 10034 10033 10032 10031 10030 10029 10028 10026 10026 10024 10024 10023 10022 10021 10021 10019 10019 10018 10017 10016 10015 10014 10013 10013 10012 10011 10010 10009 10009 10008 10007 10006 10006
10162 10156 10151 10146 10141 10137 10133 10129 10125 10121 10117 10114 10111 10108 10105 10103 10100 10098 10094 10091 10088 10086 10083 10081 10079 10077 10075 10073 10071 10068 10067 10065 10064 10063 10061 10059 10056 10054 10053 10051 10050 10048 10047 10046 10044 10043 10041 10040 10039 10038 10036 10034 10033 10031 10029 10029 10028 10027 10026 10025 10024 10023 10022 10021 10020 10019 10018 10018 10017 10016 10016 10014 10014 10013 10012 10011 10010 10009 10009 10008 10008 10007 10006 10005 10004 10004
10154 10149 10144 10140 10136 10131 10127 10123 10119 10116 10112 10108 10105 10102 10099 10097 10094 10091 10089 10086 10083 10081 10079 10076 10074 10073 10070 10068 10066 10064 10063 10061 10060 10058 10057 10054 10053 10051 10049 10048 10046 10044 10043 10042 10041 10039 10038 10037 10036 10034 10033 10031 10030 10028 10027 10026 10025 10024 10023 10023 10021 10020 10019 10018 10017 10016 10016 10015 10014 10014 10013 10013 10012 10011 10010 10009 10008 10008 10007 10006 10006 10004 10004 10003 10003 10002
10147 10142 10138 10134 10129 10125 10121 10118 10113 10110 10106 10103 10100 10097 10094 10091 10089 10086 10083 10081 10078 10076 10074 10072 10070 10068 10066 10064 10061 10059 10058 10056 10056 10054 10053 10051 10049 10047 10045 10044 10042 10041 10039 10038 10037 10036 10034 10033 10032 10031 10029 10028 10027 10026 10024 10023 10022 10021 10020 10019 10019 10018 10017 10016 10014 10014 10013 10013 10012 10011 10011 10010 10009 10009 10008 10007 10006 10006 10005 10004 10004 10003 10002 10002 10001 10001
10140 10135 10131 10127 10123 10119 10115 10111 10108 10104 10101 10098 10095 10092 10089 10086 10083 10081 10078 10076 10073 10071 10069 10068 10066 10064 10062 10059 10057 10055 10053 10052 10051 10050 10049 10047 10046 10044 10042 10040 10039 10037 10036 10034 10034 10033 10032 10030 10029 10028 10026 10025 10024 10023 10022 10021 10019 10019 10018 10017 10016 10016 10014 10013 10013 10011 10011 10010 10009 10009 10009 10008 10008 10007 10006 10005 10004 10004 10003 10003 10002 10001 10001 10000 9999 9999
10133 10129 10124 10121 10118 10113 10109 10106 10102 10099 10096 10093 10090 10088 10084 10081 10078 10076 10073 10071 10069 10068 10066 10064 10062 10060 10058 10056 10053 10051 10049 10048 10047 10046 10045 10044 10042 10040 10038 10037 10035 10034 10033 10031 10030 10029 10029 10028 10026 10024 10023 10023 10021 10021 10019 10018 10018 10016 10015 10014 10014 10013 10012 10011 10011 10009 10008 10008 10007 10006 10006 10006 10006 10005 10004 10003 10003 10002 10001 10001 10000 9999 9999 9998 9998 9998
10127 10123 10118 10115 10111 10108 10104 10101 10097 10094 10091 10088 10086 10083 10079 10076 10074 10071 10069 10067 10065 10063 10061 10060 10058 10056 10054 10052 10049 10048 10046 10044 10043 10043 10041 10040 10038 10037 10035 10033 10032 10031 10029 10028 10027 10026 10026 10024 10023 10022 10021 10019 10018 10018 10017 10016 10015 10014 10013 10012 10011 10011 10010 10009 10008 10008 10006 10006 10005 10004 10004 10004 10004 10003 10003 10002 10001 10000 9999 9999 9998 9998 9998 9997 9996 9996
10121 10116 10113 10109 10106 10103 10099 10096 10093 10089 10086 10084 10081 10078 10075 10072 10069 10067 10064 10063 10061 10059 10058 10056 10054 10053 10051 10048 10046 10044 10043 10041 10039 10039 10038 10036 10035 10034 10032 10030 10029 10027 10026 10024 10024 10023 10023 10022 10021 10019 10018 10017 10016 10015 10014 10013 10013 10012 10011 10010 10009 10008 10008 10007 10006 10006 10004 10004 10003 10003 10002 10002 10002 10002 10001 10000 9999 9999 9998 9998 9997 9996 9996 9996 9995 9995
10114 10110 10106 10103 10100 10097 10094 10091 10088 10085 10082 10079 10077 10074 10071 10068 10065 10063 10061 10059 10057 10055 10054 10052 10051 10049 10047 10045 10043 10041 10039 10038 10036 10036 10034 10033 10032 10030 10029 10027 10026 10024 10023 10022 10021 10020 10019 10019 10018 10017 10016 10015 10014 10013 10012 10011 10010 10009 10009 10008 10007 10006 10006 10005 10004 10004 10003 10002 10001 10001 10000 10000 10000 10000 9999 9999 9998 9997 9996 9996 9996 9995 9995 9994 9994 9994
10108 10104 10101 10098 10094 10092 10089 10086 10083 10081 10078 10075 10072 10069 10066 10064 10061 10059 10057 10055 10053 10052 10050 10048 10047 10045 10043 10041 10039 10038 10036 10034 10033 10032 10031 10030 10029 10027 10026 10024 10023 10021 10020 10019 10018 10017 10017 10016 10015 10014 10014 10013 10011 10011 10009 10009 10008 10007 10006 10006 10005 10004 10004 10003 10002 10002 10001 10001 9999 9999 9999 9998 9998 9998 9998 9998 9997 9996 9995 9994 9994 9994 9994 9994 9993 9993
10103 10099 10096 10093 10089 10087 10084 10082 10079 10076 10073 10071 10068 10065 10063 10060 10058 10055 10053 10052 10050 10048 10047 10045 10043 10041 10040 10038 10036 10034 10033 10031 10030 10029 10028 10027 10026 10024 10023 10021 10020 10019 10018 10016 10016 10014 10014 10013 10013 10012 10011 10010 10009 10008 10008 10006 10006 10005 10004 10004 10003 10003 10002 10001 10000 10000 9999 9999 9998 9998 9997 9996 9997 9997 9997 9996 9995 9994 9993 9993 9993 9993 9993 9993 9993 9993
10098 10094 10091 10088 10085 10083 10080 10077 10074 10071 10069 10066 10063 10061 10058 10056 10054 10052 10050 10048 10046 10045 10043 10041 10040 10038 10036 10035 10033 10032 10030 10028 10027 10026 10025 10024 10023 10021 10020 10019 10017 10016 10015 10014 10013 10012 10011 10011 10010 10009 10009 10008 10007 10006 10005 10004 10004 10003 10002 10002 10001 10001 10000 9999 9999 9998 9998 9997 9996 9996 9995 9995 9995 9996 9996 9995 9994 9993 9992 9992 9992 9992 9992 9992 9992 9992
10093 10089 10086 10083 10081 10078 10076 10073 10070 10068 10064 10062 10059 10057 10054 10053 10051 10049 10047 10045 10043 10042 10040 10038 10036 10035 10033 10032 10031 10029 10027 10026 10024 10023 10022 10021 10020 10019 10018 10016 10015 10014 10013 10012 10011 10010 10009 10008 10008 10007 10006 10006 10005 10004 10003 10003 10002 10001 10000 10000 9999 9999 9998 9998 9997 9996 9996 9995 9994 9994 9993 9993 9994 9994 9994 9994 9993 9991 9991 9991 9991 9991 9991 9991 9991 9991
10088 10084 10081 10079 10076 10074 10071 10068 10066 10063 10060 10058 10055 10053 10051 10049 10047 10045 10043 10042 10040 10039 10037 10035 10033 10032 10030 10029 10028 10026 10024 10023 10021 10020 10019 10018 10018 10016 10015 10014 10013 10011 10010 10009 10008 10008 10007 10006 10005 10004 10004 10003 10003 10002 10001 10001 10000 9999 9999 9998 9998 9997 9996 9996 9995 9994 9994 9993 9993 9992 9992 9992 9993 9993 9993 9993 9991 9990 9989 9989 9989 9990 9990 9990 9991 9991
10083 10080 10078 10075 10073 10069 10067 10064 10061 10059 10056 10054 10051 10049 10047 10045 10044 10042 10040 10039 10037 10036 10034 10032 10031 10029 10028 10026 10025 10024 10022 10021 10019 10018 10017 10016 10014 10014 10013 10011 10011 10009 10008 10007 10006 10005 10004 10003 10003 10002 10001 10001 10000 10000 9999 9999 9998 9998 9997 9996 9996 9995 9994 9994 9994 9993 9993 9992 9991 9991 9991 9991 9992 9993 9993 9991 9990 9989 9988 9988 9989 9989 9989 9990 9990 9991
10079 10076 10073 10071 10068 10066 10063 10060 10058 10054 10052 10050 10048 10046 10044 10042 10040 10038 10037 10036 10034 10033 10031 10029 10028 10026 10025 10023 10022 10021 10019 10018 10017 10016 10014 10013 10012 10011 10010 10009 10008 10008 10006 10005 10004 10003 10002 10001 10000 9999 9999 9999 9998 9998 9998 9997 9996 9996 9995 9994 9994 9993 9993 9993 9992 9991 9991 9990 9989 9989 9989 9990 9991 9991 9991 9989 9988 9988 9987 9988 9988 9989 9989 9989 9990 9991
10073 10071 10069 10066 10064 10061 10059 10056 10053 10051 10048 10046 10044 10042 10040 10038 10037 10035 10034 10032 10031 10029 10028 10026 10025 10023 10022 10021 10019 10018 10017 10016 10014 10013 10012 10011 10010 10009 10008 10007 10006 10005 10004 10003 10003 10001 10000 9999 9998 9997 9997 9996 9996 9996 9995 9995 9994 9994 9993 9993 9992 9992 9991 9991 9990 9989 9989 9988 9988 9988 9988 9989 9989 9990 9989 9988 9987 9986 9986 9987 9988 9988 9989 9989 9990 9990
10069 10066 10064 10062 10059 10057 10054 10052 10049 10047 10044 10043 10041 10039 10037 10035 10033 10032 10031 10029 10028 10026 10025 10024 10022 10021 10019 10018 10017 10016 10014 10013 10012 10011 10010 10009 10008 10007 10006 10005 10004 10003 10003 10001 10001 9999 9998 9997 9996 9995 9994 9994 9994 9994 9993 9993 9993 9992 9991 9991 9991 9990 9989 9989 9988 9988 9987 9986 9986 9986 9987 9988 9989 9989 9988 9987 9986 9986 9986 9987 9988 9988 9988 9989 9989 9990
10064 10062 10059 10058 10055 10053 10050 10048 10046 10043 10041 10039 10037 10035 10033 10032 10030 10029 10028 10026 10025 10023 10022 10021 10019 10018 10017 10016 10014 10013 10012 10011 10010 10009 10008 10007 10006 10005 10004 10003 10002 10001 10001 9999 9999 9998 9997 9996 9994 9994 9993 9993 9992 9992 9991 9991 9991 9990 9989 9989 9989 9988 9988 9987 9986 9986 9986 9985 9985 9985 9986 9987 9988 9988 9987 9986 9985 9985 9986 9986 9987 9987 9988 9988 9989 9989
10060 10058 10056 10054 10051 10049 10046 10044 10042 10039 10038 10036 10034 10032 10030 10029 10028 10026 10024 10023 10022 10021 10019 10018 10017 10016 10014 10013 10012 10011 10010 10009 10008 10007 10006 10005 10004 10003 10002 10001 10000 9999 9999 9998 9997 9996 9996 9994 9994 9993 9991 9991 9990 9990 9989 9989 9989 9988 9988 9988 9987 9986 9986 9985 9984 9984 9984 9984 9984 9984 9985 9986 9986 9986 9986 9985 9984 9984 9985 9986 9986 9986 9987 9988 9989 9989